NOAA 16 DEB, 41198

Orbit data source: Space-Track

NOAA 16 DEB, 41198 is space debris in SSO originally from a launch on Thu, 21 Sep 2000 UTC launched from the Air Force Western Test Range (AFWTR). Debris objects in space refer to the collection of defunct objects orbiting the Earth. Examples of debris include non-operational satellites, rocket bodies, and fragments generated from explosions, collisions, or faulty payload assembly.

Loading next visibility...
NOAA 16 DEB details
Identifier
41198, 2000-055DB
Orbit
SSO
Last TLE update8 hours ago
Origin
Flag of USNOAA (US)
ManufacturerUnknown
MissionSpacecraft
Bus & MotorUnknown
MassUnknown
Launch date (UTC)
2000-09-21 (24 years ago)
Launch vehicleUnknown
Launch site
Air Force Western Test Range (AFWTR)
Object type
Payload
Rocket body
Debris
Shape & HBRUnknown
Radar Cross SectionSmall (<0.1 m²)

Expand to show TLE details & history

TLE from 8 hours ago
0 NOAA 16 DEB
1 41198U 00055DB  24361.50601745  .00023126  00000-0  90735-2 0  9997
2 41198  98.9180  85.9623 0026983 292.8531  66.9801 14.29118532464506
Epoch: 2024-12-26T12:08Z
Definitive object data (Epoch: 2024-12-26T12:08:39.907Z)
Latitude-0.00004°
Longitude168.31159°
Altitude790.073 km
Speed7.463 km/s
True Right ascension05h 43m 50s
True Declination0° 00' 00"
Sunlit
Object was in full shadow at TLE epoch
Visualization TLE readout
Latitude8.46844°
Longitude-10.03626°
Altitude806.659 km
Speed7.446 km/s
Apparent Right ascension15h 43m 12s
Apparent Declination-46° 19' 13"
Sunlit
Object is in daylight
Visualization observer readout
Local Sidereal Time19:02:44
Azimuth212.153° SW
Elevation-7.051°
Doppler factor1
Orbital elements
Apogee altitude811.182 km
Perigee altitude772.489 km
Semi-major axis7,169.972 km
Eccentricity0.0026983
Inclination98.918°
RAAN85.9623°
Arg. of periapsis292.8531°
True anomaly67.26505°
Mean anomaly66.9801°
Eccentric anomaly67.12254°
Mean motion3.57493 °/min
BSTAR0.0090735
Orbital period100.7 mins
Loading maneuver chart data...
Loading historical data...
Loading historical data...
Loading historical data...
Loading historical data...
Loading historical data...
Loading historical data...
Loading historical data...

NOAA 16 DEB Visibility forecast

Observer location: undefined°, undefined

Span
Click to sort rows by Start time (UTC) header in descending order
Start Az.
Max El. time (UTC)
Max El. Az.
Max El.
End time (UTC)
End Az.
8 mins2024-12-27 05:05:02.867Z128.19° SE2024-12-27 05:09:02.867Z63.853° ENE30.406°2024-12-27 05:13:02.867Z6.447° NNE
6 mins2024-12-27 06:46:02.867Z224.82° SW2024-12-27 06:48:02.867Z256.876° W24.237°2024-12-27 06:52:02.867Z315.948° NNW
8 mins2024-12-27 18:59:02.867Z7.105° NNE2024-12-27 19:02:02.867Z319.049° NNW43.463°2024-12-27 19:07:02.867Z202.835° SW
|